Stations météo

réclame
Mon MeteoGroup
Norrkoping, Suède (2574): Température de l'air & dewpoint: 15.01.2019 17:00:00 - 21.01.2019 17:00:00 (CET)Norrkoping, Suède (2574): Vitesse du vent & gusts: 15.01.2019 17:00:00 - 21.01.2019 17:00:00 (CET)Norrkoping, Suède (2574): Direction du vent: 15.01.2019 17:00:00 - 21.01.2019 17:00:00 (CET)Norrkoping, Suède (2574): reduced air pressure: 15.01.2019 17:00:00 - 21.01.2019 17:00:00 (CET)Norrkoping, Suède (2574): visibility: 15.01.2019 17:00:00 - 21.01.2019 17:00:00 (CET)Norrkoping, Suède (2574): Quantités de précipitations: 15.01.2019 17:00:00 - 21.01.2019 17:00:00 (CET)
Date & Time tt [°C] td [°C] ff [km/h] ff [knt] fx [km/h] fx [knt] dd ppp [hPa] vv [km] rr [mm]
21.01.2019 17:00:00 - - - - - - - - - -
21.01.2019 16:00:00 -2,1 -2,7 4 2 10 5 ESE 1015,2 3,3 0,1
21.01.2019 15:00:00 -2,3 -2,9 3 2 14 8 ESE 1015,3 3,1 0,0
21.01.2019 14:00:00 -2,5 -3,0 6 3 16 9 ESE 1015,4 2,5 0,3
21.01.2019 13:00:00 -2,5 -3,5 6 4 15 8 ESE 1015,5 3,6 0,3
21.01.2019 12:00:00 - - - - - - - - - -
21.01.2019 11:00:00 -3,1 -4,4 5 3 14 8 ESE 1016,0 5 0,1
21.01.2019 10:00:00 -3,3 -4,7 6 4 12 6 SE 1015,9 30 0,0
21.01.2019 09:00:00 -4,6 -5,7 5 3 9 5 SE 1015,9 35 0,0
21.01.2019 08:00:00 -5,4 -6,6 4 2 12 6 ESE 1015,6 46 0,0
21.01.2019 07:00:00 -5,7 -6,9 4 2 6 4 ENE 1015,7 - 0,1
21.01.2019 06:00:00 -6,0 -7,1 0 0 6 3 N 1015,9 50 0,0
21.01.2019 05:00:00 -6,6 -7,7 0 0 5 3 N 1016,2 19 0,0
21.01.2019 04:00:00 -7,2 -8,3 0 0 9 5 N 1016,5 50 0,0
21.01.2019 03:00:00 -8,1 -9,0 5 3 13 7 WSW 1017,0 50 0,0
21.01.2019 02:00:00 -8,8 -9,9 6 3 10 5 WSW 1016,9 50 0,0
21.01.2019 01:00:00 -9,1 -10,2 6 3 9 5 WSW 1017,2 50 0,0
21.01.2019 00:00:00 -8,8 -10,0 5 3 9 5 WSW 1017,4 50 0,0
20.01.2019 23:00:00 -7,9 -9,7 6 3 13 7 W 1017,5 50 0,0
20.01.2019 22:00:00 -7,4 -9,6 7 4 12 7 W 1017,5 50 0,0
20.01.2019 21:00:00 -6,8 -9,4 8 4 18 10 W 1017,3 50 0,0
20.01.2019 20:00:00 -7,1 -9,5 8 4 13 7 W 1017,1 50 0,0
20.01.2019 19:00:00 -7,0 -9,7 6 4 10 5 W 1016,9 50 0,0
20.01.2019 18:00:00 -6,4 -9,6 5 3 9 5 WSW 1016,8 50 0,0
20.01.2019 17:00:00 -5,5 -9,2 6 3 9 5 WSW 1016,8 50 0,0
20.01.2019 16:00:00 -4,7 -9,3 5 3 10 5 W 1016,6 50 0,0
20.01.2019 15:00:00 -2,7 -8,8 6 3 13 7 WNW 1016,6 50 0,0
20.01.2019 14:00:00 -2,3 -8,6 8 4 17 9 WNW 1016,5 50 0,0
20.01.2019 13:00:00 -2,5 -8,6 7 4 17 9 WNW 1016,3 50 0,0
20.01.2019 12:00:00 -3,1 -8,6 9 5 16 9 WNW 1016,2 50 0,0
20.01.2019 11:00:00 -4,2 -8,7 8 4 18 10 WNW 1016,1 42 0,0
20.01.2019 10:00:00 -5,0 -9,1 8 4 14 7 WNW 1015,8 50 0,0
20.01.2019 09:00:00 -6,7 -9,7 5 3 13 7 WNW 1015,2 50 0,0
20.01.2019 08:00:00 -6,8 -9,8 4 2 10 6 WNW 1014,6 50 0,0
20.01.2019 07:00:00 -6,3 -9,8 5 3 11 6 W 1014,4 50 0,0
20.01.2019 06:00:00 -5,8 -9,5 4 2 13 7 W 1014,1 50 0,0
20.01.2019 05:00:00 -4,6 -8,7 6 3 16 9 W 1013,8 50 0,0
20.01.2019 04:00:00 -2,8 -7,9 9 5 14 8 WNW 1013,4 50 0,0
20.01.2019 03:00:00 -2,4 -7,1 5 3 12 7 WNW 1013,0 50 0,0
20.01.2019 02:00:00 -2,0 -7,3 7 4 17 9 WNW 1012,8 50 0,0
20.01.2019 01:00:00 -1,9 -6,8 7 4 18 10 WNW 1012,5 50 0,0
20.01.2019 00:00:00 -1,2 -5,6 9 5 16 9 NW 1012,3 50 0,0
19.01.2019 23:00:00 -1,6 -3,5 5 3 13 7 W 1011,8 50 0,0
19.01.2019 22:00:00 - - - - 15 8 - - - -
19.01.2019 21:00:00 -0,8 -1,8 6 3 16 8 WNW 1011,0 50 0,0
19.01.2019 20:00:00 -0,7 -1,8 6 4 23 12 W 1010,7 50 0,1
19.01.2019 19:00:00 -0,2 -0,8 10 5 23 12 NW 1010,4 1,6 0,6
19.01.2019 18:00:00 0,8 -2,4 9 5 26 14 WNW 1009,8 50 0,0
19.01.2019 17:00:00 0,9 -2,7 11 6 26 14 W 1009,4 50 0,0
19.01.2019 16:00:00 0,9 -2,2 8 5 21 12 W 1009,3 49 0,0
19.01.2019 15:00:00 1,2 -2,2 12 7 23 12 W 1009,3 49 0,0
19.01.2019 14:00:00 1,4 -2,0 11 6 25 14 W 1009,3 40 0,0
19.01.2019 13:00:00 0,2 -2,7 5 3 19 10 W 1009,4 50 0,0
19.01.2019 12:00:00 -0,9 -3,6 8 5 18 10 W 1009,8 48 0,0
19.01.2019 11:00:00 -1,8 -4,3 11 6 22 12 SW 1010,2 50 0,0
19.01.2019 10:00:00 -2,7 -5,3 11 6 19 10 SW 1010,5 50 0,0
19.01.2019 09:00:00 -4,5 -7,1 6 3 13 7 WSW 1010,9 50 0,0
19.01.2019 08:00:00 -5,3 -8,0 6 4 15 8 WSW 1010,8 50 0,0
19.01.2019 07:00:00 -5,4 -7,7 9 5 16 8 SW 1011,0 50 0,0
19.01.2019 06:00:00 -6,2 -7,7 5 3 12 6 SW 1011,6 50 0,0
19.01.2019 05:00:00 -5,8 -7,2 6 4 14 7 SW 1011,9 50 0,0
19.01.2019 04:00:00 -6,0 -7,8 5 3 10 5 SW 1011,9 50 0,0
19.01.2019 03:00:00 -6,2 -8,2 6 3 12 6 WSW 1012,0 50 0,0
19.01.2019 02:00:00 -5,9 -8,5 6 4 11 6 WSW 1012,0 50 0,0
19.01.2019 01:00:00 -5,4 -8,3 6 3 11 6 W 1011,7 50 0,0
19.01.2019 00:00:00 -5,9 -9,0 5 3 14 7 WSW 1011,3 50 0,0
18.01.2019 23:00:00 -5,5 -8,9 7 4 14 8 W 1011,0 50 0,0
18.01.2019 22:00:00 -5,6 -8,8 8 4 16 9 W 1010,4 50 0,0
18.01.2019 21:00:00 -4,8 -8,4 9 5 15 8 W 1009,9 50 0,0
18.01.2019 20:00:00 -4,5 -8,4 8 4 16 9 WSW 1009,2 50 0,0
18.01.2019 19:00:00 -3,7 -7,8 8 5 19 11 W 1008,8 50 0,0
18.01.2019 18:00:00 -3,2 -7,3 9 5 23 12 W 1008,2 50 0,0
18.01.2019 17:00:00 -3,1 -6,6 8 5 19 10 W 1007,7 50 0,0
18.01.2019 16:00:00 -2,6 -6,9 8 4 24 13 W 1007,2 50 0,0
18.01.2019 15:00:00 -1,4 -6,3 9 5 22 12 W 1006,7 50 0,0
18.01.2019 14:00:00 -0,8 -6,0 10 5 24 13 W 1006,3 50 0,0
18.01.2019 13:00:00 -1,3 -6,8 10 5 23 12 W 1006,2 46 0,0
18.01.2019 12:00:00 -2,8 -7,7 9 5 22 12 W 1006,1 45 0,0
18.01.2019 11:00:00 -4,0 -8,5 9 5 19 11 W 1005,9 50 0,0
18.01.2019 10:00:00 -5,4 -9,0 8 5 18 10 W 1005,7 50 0,0
18.01.2019 09:00:00 -6,5 -9,4 9 5 21 11 W 1005,0 50 0,0
18.01.2019 08:00:00 -6,8 -9,4 10 5 21 11 W 1004,2 50 0,0
18.01.2019 07:00:00 -6,8 -9,2 10 5 23 12 WNW 1003,5 50 0,0
18.01.2019 06:00:00 -7,1 -9,4 7 4 18 10 W 1003,0 50 0,0
18.01.2019 05:00:00 -7,0 -9,1 7 4 20 11 W 1002,6 50 0,0
18.01.2019 04:00:00 -6,9 -9,1 8 5 20 11 W 1002,0 50 0,0
18.01.2019 03:00:00 -7,0 -9,2 10 5 21 11 WNW 1001,5 50 0,0
18.01.2019 02:00:00 -7,3 -9,2 9 5 20 11 WNW 1001,0 50 0,0
18.01.2019 01:00:00 -7,1 -9,3 9 5 21 11 W 1000,6 50 0,0
18.01.2019 00:00:00 -7,2 -9,3 8 4 17 9 W 1000,0 50 0,0
17.01.2019 23:00:00 -7,2 -9,0 8 4 17 9 W 999,5 50 0,0
17.01.2019 22:00:00 -6,9 -8,4 6 3 16 9 W 999,3 50 0,0
17.01.2019 21:00:00 -6,4 -7,9 8 4 23 12 WNW 998,6 50 0,0
17.01.2019 20:00:00 -5,7 -7,5 7 4 21 12 WNW 997,8 50 0,0
17.01.2019 19:00:00 -4,0 -6,5 12 7 26 14 NNW 996,9 50 0,0
17.01.2019 18:00:00 -3,1 -6,1 9 5 21 12 NNW 995,7 50 0,0
17.01.2019 17:00:00 -3,1 -5,6 7 4 19 10 NNW 994,5 50 0,0
17.01.2019 16:00:00 -3,9 -5,6 8 4 18 10 NW 993,6 50 0,0
17.01.2019 15:00:00 -3,3 -5,6 7 4 17 9 NW 992,2 50 0,0
17.01.2019 14:00:00 -3,2 -5,4 10 6 22 12 WNW 991,7 50 0,0
17.01.2019 13:00:00 -3,5 -5,5 10 6 20 11 WNW 990,6 50 0,0
17.01.2019 12:00:00 -3,9 -5,6 10 6 21 11 WNW 989,5 50 0,0
17.01.2019 11:00:00 -4,4 -5,9 11 6 23 12 WNW 988,6 50 0,0
17.01.2019 10:00:00 -4,9 -6,3 13 7 25 14 WNW 987,8 19 0,0
17.01.2019 09:00:00 -5,1 -6,9 13 7 27 14 WNW 986,6 50 0,0
17.01.2019 08:00:00 -5,0 -7,4 17 9 28 15 WNW 985,3 50 0,0
17.01.2019 07:00:00 -4,3 -6,8 14 7 31 17 WNW 984,1 50 0,0
17.01.2019 06:00:00 -2,4 -4,6 13 7 28 15 WNW 983,0 46 0,0
17.01.2019 05:00:00 -0,8 -2,5 16 9 31 17 WNW 982,4 50 0,0
17.01.2019 04:00:00 0,4 -0,7 10 5 23 12 WNW 981,9 50 0,0
17.01.2019 03:00:00 1,9 0,9 12 6 22 12 WNW 981,4 50 0,1
17.01.2019 02:00:00 3,7 2,5 13 7 28 15 W 981,0 9 0,0
17.01.2019 01:00:00 4,2 3,3 13 7 26 14 WSW 981,0 50 0,0
17.01.2019 00:00:00 4,2 3,0 13 7 28 15 WSW 981,3 50 0,7
16.01.2019 23:00:00 4,3 3,8 11 6 32 18 WSW 981,8 11 2,0
16.01.2019 22:00:00 4,9 3,7 15 8 34 18 SW 981,7 14 0,4
16.01.2019 21:00:00 4,9 3,2 17 9 36 20 SW 982,2 14 0,1
16.01.2019 20:00:00 4,9 3,2 15 8 32 17 SSW 982,9 50 0,0
16.01.2019 19:00:00 4,4 3,1 16 9 30 16 SSW 983,9 38 0,0
16.01.2019 18:00:00 3,5 2,6 13 7 29 16 SSW 984,9 45 0,0
16.01.2019 17:00:00 2,9 2,6 11 6 26 14 SSW 986,0 50 0,0
16.01.2019 16:00:00 1,1 1,0 9 5 22 12 S 987,5 50 0,0
16.01.2019 15:00:00 -0,3 -0,4 10 5 27 15 SSE 988,9 3,7 0,7
16.01.2019 14:00:00 -1,6 -1,9 12 6 20 11 SE 990,7 1,5 1,2
16.01.2019 13:00:00 -2,4 -2,8 11 6 22 12 SE 992,8 1,0 0,6
16.01.2019 12:00:00 -2,8 -3,9 6 3 18 10 ESE 994,7 42 0,0
16.01.2019 11:00:00 -3,6 -4,6 8 4 13 7 SE 996,4 39 0,0
16.01.2019 10:00:00 -4,8 -5,6 4 2 8 4 ESE 997,5 32 0,0
16.01.2019 09:00:00 -5,1 -5,8 2 1 6 3 ESE 998,0 33 0,0
16.01.2019 08:00:00 -6,4 -7,2 2 1 5 3 SE 998,6 37 0,0
16.01.2019 07:00:00 -6,5 -7,2 2 1 4 2 ESE 998,4 36 0,0
16.01.2019 06:00:00 -6,1 -6,6 2 1 5 3 SSW 998,8 39 0,0
16.01.2019 05:00:00 -5,3 -6,0 3 1 4 2 WSW 998,9 28 0,0
16.01.2019 04:00:00 -4,3 -5,3 0 0 5 3 N 998,7 50 0,0
16.01.2019 03:00:00 -3,9 -5,0 4 2 8 4 WSW 998,5 50 0,0
16.01.2019 02:00:00 -3,8 -4,9 3 2 8 5 W 998,1 50 0,0
16.01.2019 01:00:00 -3,8 -5,1 4 2 8 5 W 997,5 50 0,0
16.01.2019 00:00:00 -3,9 -5,3 3 1 7 4 W 997,2 50 0,0
15.01.2019 23:00:00 -4,1 -5,3 0 0 4 2 N 996,7 18 0,0
15.01.2019 22:00:00 -4,1 -5,3 0 0 4 2 N 996,2 36 0,0
15.01.2019 21:00:00 -4,0 -5,4 3 2 7 4 W 995,4 3,7 0,0
15.01.2019 20:00:00 -4,1 -5,6 4 2 8 4 W 995,0 50 0,0
15.01.2019 19:00:00 -3,7 -5,5 3 2 8 4 W 994,7 7 0,1
15.01.2019 18:00:00 -3,4 -5,4 5 3 9 5 NW 994,6 2,3 0,1
15.01.2019 17:00:00 -2,7 -6,7 3 1 7 4 W 994,6 10 0,0

tt = Température de l'air
td = dewpoint
ff = Vitesse du vent
fx = gusts
dd = Direction du vent
ppp = reduced air pressure
vv = visibility
rr = Quantités de précipitations

stations d'obs. à proximité